Location: Palomar Mountain Lodge
(33.3110°N, 116.8495°W)
Time: 23:18:53
(UTC-07:00)

Daily predictions for brighter satellites

Satellite Brightness Start Highest point End
(mag) Time Altitude Azimuth Time Altitude Azimuth Time Altitude Azimuth
Meteosat 1 Rocket2 4.0 19:45:01 10° SW 19:49:00 38° SSE 19:54:32 10° E
Cosmos 44 3.1 19:45:26 10° NNW 19:49:53 69° ENE 19:54:32 10° SE
Intercosmos 25 Rocket 3.8 19:47:00 10° NNW 19:50:05 55° W 19:53:36 10° S
ATLAS 3B R/B 4.5 19:47:04 10° N 19:50:09 13° NE 19:53:11 10° ENE
CZ-3A R/B 3.2 19:44:36 10° W 19:51:06 22° SSW 19:53:38 10° SSE
CZ-4C R/B 4.2 19:46:09 10° NW 19:53:10 44° WSW 20:00:41 10° S
USA 186 3.4 19:51:12 10° ESE 19:53:42 20° ENE 19:56:14 10° NNE
Cosmos 1441 Rocket 3.7 19:50:02 10° NNW 19:53:42 63° W 19:57:25 10° S
DELTA 2 R/B (1) 3.7 19:50:26 10° WNW 19:56:03 85° SSW 20:01:40 10° ESE
BREEZE M DEB (TANK) 4.4 19:40:12 10° SSW 19:57:10 47° SE 20:01:39 10° ENE
SWAS 4.5 19:52:54 10° NNW 19:57:12 88° WSW 20:01:27 10° SSE
SJ-6B 2.9 19:54:34 10° SSE 19:58:37 89° ENE 20:02:44 10° NNW
Meteor 1-11 Rocket 4.0 19:53:36 10° SSE 19:59:09 48° E 20:04:39 10° NNE
SL-16 R/B 2.2 19:53:55 10° SSW 19:59:33 77° ESE 20:05:13 10° NNE
USA 267 3.5 19:55:46 10° ESE 20:02:10 60° NE 20:08:36 10° NW
NOSS 2-3 (D) 3.7 19:57:45 10° SSW 20:02:17 83° ESE 20:07:22 10° NNE
Envisat 3.9 19:57:59 10° SE 20:02:18 29° ENE 20:06:38 10° NNE
Meteor 2-11 Rocket 4.4 19:59:56 10° N 20:05:59 68° E 20:11:59 10° SSE
ALOS 3.8 20:03:42 10° SSW 20:08:02 39° W 20:12:24 10° NNW
Cosmos 1300 Rocket 4.1 20:04:50 10° SSE 20:08:46 36° E 20:12:43 10° NNE
Okean 1 Rocket 4.1 20:06:34 10° SE 20:10:04 24° E 20:13:36 10° NE
MINOTAUR R/B 4.4 20:07:50 10° NNW 20:10:35 76° WSW 20:13:18 10° SSE
Tiangong 1 2.9 20:09:12 10° NNW 20:11:19 19° NNE 20:13:23 10° ENE
Cosmos 2360 Rocket 2.6 20:13:23 10° S 20:18:36 40° ESE 20:23:49 10° NE
Lacrosse 5 2.3 20:17:37 10° SW 20:22:39 68° NW 20:27:42 10° NNE
COSMOS 2428 4.0 20:22:47 16° ESE 20:24:24 18° E 20:28:12 10° ENE
ATLAS 2AS CENTAUR R/B 3.0 20:20:40 10° SSW 20:28:11 87° ESE 20:36:17 10° NNE
Cosmos 1536 2.8 20:24:11 10° S 20:28:11 63° E 20:32:12 10° NNE
Helios 1A 4.4 20:27:54 19° E 20:29:04 21° ENE 20:32:15 10° NNE
Meteor 1-19 Rocket 4.2 20:23:38 10° N 20:29:30 80° E 20:35:14 10° S
Cosmos 1939 Rocket 3.6 20:28:40 22° ESE 20:30:33 34° ENE 20:34:07 10° N
Cosmos 1110 Rocket 4.2 20:25:44 10° S 20:30:37 46° ESE 20:35:33 10° NNE
Lacrosse 5 rocket 2.6 20:28:01 10° WNW 20:31:23 33° SW 20:34:55 10° S
Resurs 01 Rocket 1.6 20:27:09 10° SSE 20:31:35 89° WSW 20:36:03 10° NNW
Cosmos 2151 Rocket 4.5 20:31:12 10° SSW 20:35:27 51° W 20:39:44 10° N
CZ-2D R/B 3.8 20:32:29 10° S 20:36:17 60° W 20:40:06 10° NNW
Meteor 1-5 Rocket 4.1 20:31:33 10° S 20:36:46 59° E 20:41:58 10° NNE
Cosmos 2266 Rocket 3.8 20:31:31 10° S 20:37:30 67° E 20:43:28 10° NNE
S3M 4.0 20:32:29 10° N 20:38:48 87° W 20:45:09 10° S
Cosmos 1553 Rocket 4.1 20:33:08 10° N 20:39:14 79° W 20:45:16 10° S
GPS 2-05 Rocket1 2.6 20:36:18 10° WNW 20:39:42 89° N 20:40:51 39° ESE
Abrixas 1.9 20:38:08 10° SW 20:40:41 64° SE 20:40:45 63° SE
Cosmos 1331 Rocket 4.0 20:37:36 10° S 20:42:36 54° ESE 20:47:40 10° NNE
SeaSat 1 2.4 20:41:50 10° NNE 20:46:47 89° ESE 20:51:42 10° SSW
Cosmos 1850 Rocket 3.9 20:41:38 10° NNW 20:46:58 87° ENE 20:50:48 19° SSE
Cosmos 1536 Rocket 3.9 20:46:24 10° NNW 20:50:40 63° W 20:54:56 10° S
Meteor 2-4 Rocket 3.7 20:46:29 10° N 20:52:07 89° ENE 20:57:17 13° S
Cosmos 2315 Rocket 4.3 20:47:55 10° N 20:53:52 45° E 20:56:32 30° SE
ASTRO E2 4.0 21:02:23 10° SW 21:04:48 26° SSW 21:04:48 26° SSW
YAOGAN 6 2.4 21:07:51 74° ENE 21:07:51 74° ENE 21:11:16 10° N
Cosmos 1932 4.5 21:02:02 10° NNW 21:08:28 70° ENE 21:10:55 39° SE
ARGOS 4.1 21:12:44 29° ENE 21:12:44 29° ENE 21:17:13 10° N
Helios 1B rocket 2.3 21:10:27 10° NNE 21:14:33 89° ESE 21:15:35 50° SSW
Cosmos 1818 3.4 21:12:10 10° SSW 21:17:29 64° ESE 21:22:52 10° NE
Delta 2 Rocket 3.6 21:16:45 10° W 21:20:45 64° N 21:21:18 57° NE
FALCON 9 R/B 4.0 21:15:54 10° SSW 21:27:23 21° E 21:34:45 10° ENE
ERS-1 Rocket 3.1 21:26:50 55° ENE 21:26:50 55° ENE 21:31:38 10° N
Cosmos 2263 Rocket 2.9 21:23:35 10° NNW 21:29:03 50° WSW 21:31:34 30° SSW
Atlas Centaur 2 3.2 21:21:13 10° W 21:29:05 48° SSW 21:30:53 41° SSE
USA 238 DEB 4.0 21:23:16 10° NNW 21:30:11 53° NE 21:31:39 46° E
USA 238 4.0 21:23:22 10° NNW 21:30:17 52° NE 21:31:45 45° E
Cosmos 2278 Rocket 4.3 21:32:28 10° NNE 21:34:14 12° NE 21:34:14 12° NE
Cosmos 1844 Rocket 3.6 21:30:32 10° N 21:35:08 33° NE 21:35:08 33° NE
MetOp-B 4.2 21:39:59 63° NE 21:39:59 63° NE 21:45:00 10° N
Okean 2 4.0 21:35:57 10° NNW 21:39:20 55° NW 21:39:20 55° NW
Cosmos 1238 Rocket 3.8 21:34:47 10° N 21:41:22 66° E 21:41:34 65° E
ATLAS 3B R/B 2.4 21:35:25 10° NNW 21:42:04 72° ENE 21:42:49 65° ESE
Cosmos 2219 Rocket 3.3 21:49:03 32° NE 21:49:03 32° NE 21:52:03 10° NNE
Tiangong 1 4.4 21:44:11 10° WNW 21:44:21 11° WNW 21:44:21 11° WNW
Meteosat 1 Rocket2 4.2 21:44:10 10° WSW 21:49:01 55° SSW 21:49:01 55° SSW
Cosmos 1025 Rocket 4.1 21:46:50 10° NNW 21:50:44 40° W 21:50:44 40° W
Intelsat 5-1 Rocket 4.1 21:36:40 10° W 21:55:48 50° SSW 21:57:02 48° S
H-2A R/B 3.1 21:58:36 34° NNE 21:58:36 34° NNE 22:01:36 10° N
SPOT 5 4.0 22:01:36 36° N 22:01:36 36° N 22:04:22 10° N
Cosmos 2360 Rocket 4.4 21:58:17 10° WSW 22:02:41 23° WNW 22:07:06 10° N
COSMOS 2428 3.5 22:04:26 20° SW 22:08:12 49° WNW 22:13:44 10° N
Aureole 3 Rocket 4.0 22:03:30 10° N 22:11:02 76° W 22:11:02 76° W
Cosmos 2333 Rocket 3.7 22:24:07 29° NNE 22:24:07 29° NNE 22:26:46 10° NNE
NOSS 3-4 (A) 4.0 22:31:03 54° NNW 22:31:03 54° NNW 22:36:20 10° NNE
NOSS 3-4 (C) 4.0 22:31:18 53° NNW 22:31:18 53° NNW 22:36:27 10° NNE
CENTAUR R/B 4.4 22:23:48 10° N 22:30:12 26° NE 22:30:40 25° NE
Cosmos 2237 Rocket 4.3 22:39:08 18° NNE 22:39:08 18° NNE 22:40:28 10° NNE
Terra 4.2 22:39:11 18° N 22:39:11 18° N 22:40:26 10° N
Cosmos 2278 Rocket 4.2 23:13:55 10° NNW 23:16:04 24° NNW 23:16:04 24° NNW
